Location: Aigen
(48.6333°N, 13.9667°E)
Time: 00:21:46
(UTC+00:00)

Daily predictions for brighter satellites

Satellite Brightness Start Highest point End
(mag) Time Altitude Azimuth Time Altitude Azimuth Time Altitude Azimuth
Cosmos 2082 Rocket 4.5 02:10:56 19° ENE 02:10:56 19° ENE 02:13:29 10° E
Cosmos 2278 Rocket 4.0 02:31:43 27° E 02:31:43 27° E 02:36:05 10° NE
USA 215 4.0 02:26:00 10° ESE 02:30:29 46° E 02:30:29 46° E
Cosmos 1833 Rocket 4.4 02:52:14 25° SE 02:52:14 25° SE 02:54:30 10° SE
Cosmos 1464 Rocket 4.1 03:25:54 10° N 03:32:16 76° E 03:38:32 10° SSE
COSMO-SKYMED 1 3.9 03:31:49 10° SE 03:35:51 38° ENE 03:37:26 28° NNE
Gbstr 26 Del rocket 3.7 03:45:48 45° E 03:45:48 45° E 03:48:49 10° E
H-2A R/B 4.3 03:41:45 10° NNE 03:45:09 34° E 03:48:33 10° SSE
COSMOS 2406 3.5 03:52:20 50° SW 03:52:20 50° SW 03:56:58 10° S
Meteor 2-2 Rocket 4.5 03:53:01 52° SW 03:53:01 52° SW 03:57:38 10° S
Cosmos 2082 Rocket 2.0 03:52:50 59° NW 03:53:57 85° WSW 03:59:35 10° SSE
Cosmos 2344 3.8 03:48:20 10° SSW 03:55:42 64° SE 04:03:21 10° NE
COSMOS 2455 3.2 03:57:05 45° SW 03:57:05 45° SW 04:02:05 10° S
Landsat 5 4.4 03:52:37 10° SE 03:56:58 51° ENE 04:00:18 17° N
Cosmos 1891 Rocket 4.5 03:51:33 13° NNW 03:57:15 65° W 04:03:38 10° S
Cosmos 1842 Rocket 4.1 03:58:55 48° S 03:58:55 48° S 04:02:10 10° S
SL-24 R/B 4.3 03:53:46 10° NNE 03:59:08 85° WNW 04:02:33 19° SSW
Cosmos 1850 Rocket 4.1 03:54:58 16° SSW 03:59:17 80° ESE 04:04:39 10° NNE
MOS 1-B Rocket 3.9 04:03:45 10° S 04:10:29 77° WSW 04:16:24 10° NNW
Cosmos 2034 Rocket 3.8 04:07:33 10° NNW 04:13:46 78° W 04:20:00 10° S
Cosmos 1900 4.3 04:13:44 55° WNW 04:14:32 64° WSW 04:19:30 10° SSE
Cosmos 2278 Rocket 2.2 04:13:39 43° WSW 04:15:09 57° WNW 04:20:45 10° NNE
USA 215 3.5 04:09:23 10° SSE 04:15:40 49° SW 04:17:51 36° W
Cosmos 1782 3.9 04:13:00 10° N 04:16:49 44° ENE 04:20:36 10° SSE
Cosmos 1943 Rocket 3.4 04:14:13 10° S 04:19:33 44° ESE 04:24:53 10° NE
CZ-2C R/B 2.6 04:14:51 10° SSE 04:20:25 83° WSW 04:25:55 10° NNW
BREEZE M DEB (TANK) 2.8 04:21:18 44° WSW 04:22:39 89° NW 04:25:18 10° ENE
SKYMED 2 3.4 04:19:29 10° S 04:23:48 73° WSW 04:26:01 29° NNW
Cosmos 1816 Rocket 4.4 04:18:00 10° S 04:24:11 86° W 04:30:29 10° N
Cosmos 540 Rocket 3.7 04:25:25 42° W 04:26:06 44° WSW 04:30:56 10° S
Cosmos 2221 4.2 04:32:05 19° SW 04:32:05 19° SW 04:33:31 10° SSW
Cosmos 1933 3.2 04:27:43 21° N 04:30:21 86° W 04:34:21 10° S
ADEOS 4.2 04:25:22 10° NNE 04:30:32 57° ESE 04:35:40 10° S
Cosmos 1833 Rocket 4.1 04:34:00 19° SW 04:34:00 19° SW 04:36:30 10° SSW
Cosmos 1741 Rocket 4.0 04:30:05 10° SW 04:35:13 57° WNW 04:40:24 10° NNE
CZ-4B R/B 4.0 04:31:42 10° NNE 04:36:04 82° WNW 04:40:30 10° SSW
Tsikada Rocket 3.9 04:30:59 10° S 04:37:11 87° W 04:43:28 10° N
SL-8 R/B 3.7 04:35:05 34° WSW 04:37:11 82° S 04:41:59 10° E
Meteor 1-31 Rocket 2.6 04:33:44 10° N 04:37:37 79° WNW 04:41:29 10° SSW
Cosmos 1634 Rocket 4.0 04:35:34 10° N 04:41:56 85° E 04:48:12 10° S
Cosmos 2151 2.8 04:38:25 10° SSW 04:42:42 75° W 04:47:01 10° N
Cosmos 1812 3.3 04:45:50 10° N 04:49:39 59° ENE 04:53:27 10° SSE
CZ-4C R/B 2.8 04:47:12 10° S 04:50:21 55° W 04:51:33 32° NW
Cosmos 841 Rocket 4.0 04:48:36 26° WNW 04:50:37 35° WSW 04:55:15 10° SSW
H-2A R/B 2.4 04:52:30 10° SSE 04:56:39 65° ENE 05:00:56 10° N
Cosmos 1939 Rocket 4.4 04:52:59 10° NNE 04:56:46 39° E 05:00:28 10° SSE
SJ-12 4.4 04:53:12 10° N 04:57:03 38° WNW 05:00:53 10° SW
Envisat 3.2 04:53:02 10° N 04:57:56 48° WNW 05:02:47 10° SW
Cosmos 2098 Rocket 3.3 04:55:00 10° S 04:58:20 59° E 05:02:27 10° NNE
Genesis I 3.9 04:57:08 16° NNW 05:00:15 55° NE 05:04:16 10° SE
Cosmos 1766 Rocket 4.4 04:57:08 10° S 05:01:22 52° E 05:05:36 10° NNE
Cosmos 1570 Rocket 4.2 05:01:27 13° NW 05:05:54 48° WSW 05:10:54 10° S
YAOGAN 6 3.6 05:03:05 10° N 05:06:10 25° WNW 05:09:13 10° WSW
DMSP B5D1-3 4.5 05:01:57 10° S 05:07:06 77° WSW 05:12:17 10° NNW
Cosmos 1076 Rocket 4.3 05:04:08 10° SW 05:07:57 29° WNW 05:11:48 10° N
DMSP B5D2-2 4.0 05:04:23 10° S 05:09:37 73° WSW 05:14:51 10° NNW
Cosmos 2369 Rocket 3.2 05:05:22 10° S 05:10:43 50° ESE 05:16:07 10° NE
COSMO-SKYMED 1 3.6 05:08:34 10° SSW 05:12:07 25° W 05:14:38 15° NW
Aureole 1 Rocket 1.9 05:11:12 10° SSW 05:14:19 76° WNW 05:17:18 10° NNE
Cosmos 1867 3.7 05:10:51 14° NW 05:15:26 58° WSW 05:20:46 10° SSE
Cosmos 1241 Rocket 4.5 05:10:06 12° NW 05:15:50 66° WSW 05:21:57 10° SSE
FALCON 9 DEB 3.9 05:14:10 10° SW 05:16:54 42° SE 05:19:39 10° ENE
APEX 3.2 05:16:51 22° WNW 05:18:03 32° WSW 05:20:43 10° S
Cosmos 921 Rocket 3.0 05:13:49 10° NNW 05:18:10 77° WSW 05:22:34 10° SSE
NOSS 3 (A) 4.5 05:19:04 25° NNW 05:19:04 25° NNW 05:20:24 10° NNE
H-2A R/B 3.9 05:16:17 10° NNW 05:19:05 21° WNW 05:21:52 10° WSW
Cosmos 2084 Rocket 3.1 05:15:23 10° SW 05:19:13 67° NW 05:23:06 10° NE
Cosmos 1328 Rocket 3.6 05:15:31 10° N 05:19:58 83° E 05:24:21 10° S
NOSS 3-2 (A) 3.4 05:14:41 10° SW 05:20:20 70° NW 05:26:58 10° NE
H-2A R/B 4.0 05:16:16 10° NNE 05:20:40 32° E 05:25:02 10° SSE
FALCON 9 DEB 3.4 05:19:58 10° SW 05:22:45 53° SSE 05:25:33 10° ENE
NOSS 3-2 (C) 3.5 05:18:08 10° SW 05:23:44 80° SE 05:30:16 10° NE
NOAA 12 4.1 05:18:26 10° NNE 05:23:46 88° ESE 05:29:02 10° SSW
Meteor 1-10 Rocket 4.4 05:18:27 10° N 05:24:05 74° ENE 05:29:36 10° SSE
FALCON 9 DEB 4.3 05:23:18 10° SSW 05:25:59 35° SE 05:28:41 10° ENE
Cosmos 1151 Rocket 3.1 05:21:50 10° NNW 05:26:11 62° W 05:30:30 10° S
CENTAUR R/B 2.5 05:21:02 10° SW 05:27:01 78° NW 05:34:18 10° NE
Cosmos 968 Rocket 3.4 05:22:37 10° SSW 05:27:47 77° WNW 05:32:57 10° NNE
CZ-4B R/B 2.6 05:25:53 10° N 05:29:29 59° WNW 05:33:00 10° SSW
Meteor 2-6 Rocket 4.1 05:25:32 10° NNW 05:31:01 74° W 05:36:23 10° S
Gbstr 26 Del rocket 3.8 05:28:19 13° W 05:31:22 35° SW 05:35:26 10° SSE
Meteor 2-3 Rocket 4.2 05:26:53 10° SW 05:32:08 39° WNW 05:37:28 10° N
Cosmos 2227 Rocket 4.4 05:33:18 10° N 05:35:54 13° NNE 05:38:30 10° ENE
Cosmos 2082 Rocket 3.8 05:34:44 11° WNW 05:37:08 14° W 05:39:59 10° SW
Meteor PRIRODA 4.0 05:36:51 10° N 05:40:15 38° WNW 05:43:37 10° SW
CZ-4B R/B 1.3 05:37:53 10° S 05:41:14 78° WSW 05:44:36 10° NNW
Cosmos 1408 Rocket 4.0 05:38:20 10° S 05:42:37 67° E 05:46:54 10° NNE
Cosmos 2297 3.9 05:37:36 10° SW 05:43:11 50° NW 05:48:46 10° NNE
USA 238 DEB 3.7 05:45:38 10° SW 05:52:08 69° NW 05:59:05 10° NE
USA 238 3.7 05:45:45 10° SW 05:52:15 69° NW 05:59:11 10° NE
Cosmos 1782 4.3 05:50:10 10° NW 05:52:45 17° W 05:55:20 10° SW
Cosmos 1515 Rocket 3.5 05:48:28 10° N 05:52:54 82° W 05:57:15 10° S
CZ-2C R/B 3.3 05:51:40 10° N 05:56:07 41° WNW 06:00:40 10° SW
